DAL4077 KLAX-KPHX

Flight info

Callsign DAL4077
Flight time 1h 0m
Altitude 35000
Route KLAX DOTSS2 CNERY BLH HYDRR1 KPHX
Aircraft B738/M-VGDW/C

Departure

Time 2026-04-26 02:30
Airport Los Angeles International Airport (KLAX)

Arrival

Time 2026-04-26 03:30
Airport Phoenix Sky Harbor International Airport (KPHX)
Time Latitude Longitude Altitude Speed Heading
2026-04-26 02:04 33.94745 -118.40439 125 ft 0 kts 174°
2026-04-26 02:16 33.94755 -118.40440 122 ft 2 kts 174°
2026-04-26 02:16 33.94771 -118.40442 122 ft 2 kts 174°
2026-04-26 02:16 33.94787 -118.40444 123 ft 2 kts 174°
2026-04-26 02:16 33.94804 -118.40445 122 ft 2 kts 200°
2026-04-26 02:17 33.94815 -118.40437 122 ft 1 kts 255°
2026-04-26 02:17 33.94816 -118.40428 120 ft 0 kts 268°
2026-04-26 02:18 33.94816 -118.40431 123 ft 2 kts 267°
2026-04-26 02:19 33.94807 -118.40481 122 ft 11 kts 251°
2026-04-26 02:19 33.94783 -118.40600 125 ft 18 kts 261°
2026-04-26 02:19 33.94765 -118.40767 123 ft 20 kts 263°
2026-04-26 02:19 33.94750 -118.40930 125 ft 19 kts 263°
2026-04-26 02:20 33.94735 -118.41077 125 ft 17 kts 263°
2026-04-26 02:20 33.94709 -118.41213 125 ft 16 kts 251°
2026-04-26 02:20 33.94689 -118.41330 122 ft 5 kts 262°
2026-04-26 02:20 33.94687 -118.41348 120 ft 2 kts 262°
2026-04-26 02:21 33.94675 -118.41367 124 ft 8 kts 218°
2026-04-26 02:21 33.94579 -118.41368 122 ft 19 kts 172°
2026-04-26 02:21 33.94426 -118.41347 125 ft 24 kts 172°
2026-04-26 02:21 33.94257 -118.41320 122 ft 24 kts 172°
2026-04-26 02:22 33.94096 -118.41298 121 ft 22 kts 173°
2026-04-26 02:22 33.93952 -118.41275 122 ft 20 kts 174°
2026-04-26 02:22 33.93821 -118.41256 123 ft 15 kts 175°
2026-04-26 02:22 33.93761 -118.41223 123 ft 10 kts 120°
2026-04-26 02:23 33.93764 -118.41118 123 ft 18 kts 82°
2026-04-26 02:23 33.93782 -118.40941 122 ft 22 kts 83°
2026-04-26 02:23 33.93801 -118.40759 125 ft 21 kts 83°
2026-04-26 02:23 33.93817 -118.40589 125 ft 20 kts 83°
2026-04-26 02:24 33.93834 -118.40432 125 ft 18 kts 85°
2026-04-26 02:24 33.93850 -118.40284 125 ft 18 kts 83°
2026-04-26 02:24 33.93866 -118.40121 123 ft 21 kts 83°
2026-04-26 02:24 33.93885 -118.39933 121 ft 24 kts 83°
2026-04-26 02:25 33.93904 -118.39740 125 ft 23 kts 83°
2026-04-26 02:25 33.93923 -118.39556 125 ft 21 kts 83°
2026-04-26 02:25 33.93941 -118.39386 121 ft 20 kts 83°
2026-04-26 02:25 33.93957 -118.39227 125 ft 18 kts 83°
2026-04-26 02:26 33.93972 -118.39077 125 ft 18 kts 83°
2026-04-26 02:26 33.93988 -118.38923 123 ft 19 kts 82°
2026-04-26 02:26 33.94005 -118.38756 125 ft 20 kts 83°
2026-04-26 02:26 33.94022 -118.38590 125 ft 19 kts 82°
2026-04-26 02:27 33.94038 -118.38435 123 ft 18 kts 83°
2026-04-26 02:27 33.94053 -118.38291 122 ft 17 kts 83°
2026-04-26 02:27 33.94066 -118.38158 125 ft 15 kts 83°
2026-04-26 02:27 33.94076 -118.38061 125 ft 1 kts 83°
2026-04-26 02:28 33.94077 -118.38058 125 ft 1 kts 83°
2026-04-26 02:28 33.94051 -118.38002 125 ft 14 kts 154°
2026-04-26 02:28 33.93986 -118.38023 124 ft 7 kts 256°
2026-04-26 02:29 33.93985 -118.38033 125 ft 0 kts 260°
2026-04-26 02:29 33.93964 -118.38223 124 ft 59 kts 263°
2026-04-26 02:30 33.93885 -118.39000 123 ft 126 kts 263°
2026-04-26 02:30 33.93753 -118.40220 453 ft 152 kts 261°
2026-04-26 02:30 33.93604 -118.41505 1204 ft 159 kts 262°
2026-04-26 02:30 33.93462 -118.42820 2053 ft 161 kts 262°
2026-04-26 02:31 33.93308 -118.44240 2544 ft 187 kts 263°
2026-04-26 02:31 33.93103 -118.45907 2868 ft 210 kts 253°
2026-04-26 02:31 33.92321 -118.47507 3139 ft 238 kts 231°
2026-04-26 02:31 33.91182 -118.49048 3733 ft 252 kts 230°
2026-04-26 02:32 33.90027 -118.50606 4810 ft 248 kts 230°
2026-04-26 02:32 33.88823 -118.52116 5634 ft 257 kts 219°
2026-04-26 02:32 33.87120 -118.52901 6379 ft 272 kts 187°
2026-04-26 02:32 33.85221 -118.52839 6684 ft 271 kts 178°
2026-04-26 02:33 33.83345 -118.52604 6890 ft 274 kts 178°
2026-04-26 02:33 33.81460 -118.52412 6916 ft 270 kts 179°
2026-04-26 02:33 33.79581 -118.52293 6966 ft 271 kts 181°
2026-04-26 02:33 33.77677 -118.52226 6999 ft 276 kts 182°
2026-04-26 02:34 33.75759 -118.52183 7002 ft 274 kts 182°
2026-04-26 02:34 33.73854 -118.52150 6997 ft 274 kts 182°
2026-04-26 02:34 33.71952 -118.52078 7004 ft 275 kts 175°
2026-04-26 02:34 33.70163 -118.51231 7003 ft 283 kts 145°
2026-04-26 02:35 33.68908 -118.49411 7017 ft 287 kts 117°
2026-04-26 02:35 33.68179 -118.47168 7015 ft 289 kts 110°
2026-04-26 02:35 33.67533 -118.44873 7017 ft 290 kts 110°
2026-04-26 02:35 33.66886 -118.42580 7011 ft 291 kts 110°
2026-04-26 02:36 33.66220 -118.40275 7005 ft 292 kts 110°
2026-04-26 02:36 33.65543 -118.37972 6997 ft 293 kts 110°
2026-04-26 02:36 33.64859 -118.35665 7001 ft 293 kts 110°
2026-04-26 02:36 33.64384 -118.33294 6999 ft 294 kts 94°
2026-04-26 02:37 33.64362 -118.30844 7015 ft 293 kts 90°
2026-04-26 02:37 33.64385 -118.28393 7006 ft 293 kts 89°
2026-04-26 02:37 33.64411 -118.25948 6996 ft 293 kts 90°
2026-04-26 02:37 33.64431 -118.23508 6998 ft 292 kts 90°
2026-04-26 02:38 33.64445 -118.21074 6990 ft 291 kts 90°
2026-04-26 02:38 33.64454 -118.18644 6991 ft 291 kts 90°
2026-04-26 02:38 33.64459 -118.16202 7065 ft 295 kts 90°
2026-04-26 02:38 33.64461 -118.13716 7794 ft 298 kts 90°
2026-04-26 02:39 33.64462 -118.11359 8615 ft 302 kts 91°
2026-04-26 02:39 33.64462 -118.08793 9461 ft 306 kts 91°
2026-04-26 02:39 33.64460 -118.06222 10231 ft 311 kts 91°
2026-04-26 02:39 33.64458 -118.04494 10476 ft 325 kts 91°
2026-04-26 02:40 33.64454 -118.01687 10799 ft 346 kts 91°
2026-04-26 02:40 33.64448 -117.97784 11610 ft 358 kts 91°
2026-04-26 02:40 33.64445 -117.95757 12109 ft 361 kts 92°
2026-04-26 02:40 33.64441 -117.92718 12839 ft 367 kts 92°
2026-04-26 02:41 33.64435 -117.89627 13556 ft 373 kts 92°
2026-04-26 02:41 33.64428 -117.86494 14216 ft 379 kts 92°
2026-04-26 02:41 33.64420 -117.83320 14891 ft 382 kts 93°
2026-04-26 02:41 33.64351 -117.80125 15609 ft 383 kts 99°
2026-04-26 02:42 33.63878 -117.76994 16321 ft 380 kts 110°
2026-04-26 02:42 33.63134 -117.73945 17041 ft 382 kts 112°
2026-04-26 02:42 33.62357 -117.70894 17755 ft 384 kts 113°
2026-04-26 02:42 33.61569 -117.67818 18436 ft 387 kts 113°
2026-04-26 02:43 33.59989 -117.61564 19519 ft 397 kts 113°
2026-04-26 02:43 33.59202 -117.58410 20022 ft 403 kts 113°
2026-04-26 02:43 33.58396 -117.55165 20527 ft 408 kts 114°
2026-04-26 02:44 33.57583 -117.51884 21046 ft 414 kts 114°
2026-04-26 02:44 33.56758 -117.48554 21550 ft 419 kts 114°
2026-04-26 02:44 33.55925 -117.45194 22055 ft 423 kts 114°
2026-04-26 02:44 33.55080 -117.41789 22554 ft 428 kts 114°
2026-04-26 02:45 33.54226 -117.38352 22955 ft 432 kts 115°
2026-04-26 02:45 33.53362 -117.34879 22949 ft 436 kts 115°
2026-04-26 02:45 33.52502 -117.31415 22959 ft 432 kts 115°
2026-04-26 02:45 33.51643 -117.27972 22975 ft 433 kts 115°
2026-04-26 02:46 33.50808 -117.24467 23127 ft 444 kts 110°
2026-04-26 02:46 33.50341 -117.20756 23634 ft 456 kts 99°
2026-04-26 02:46 33.50250 -117.16950 24142 ft 459 kts 97°
2026-04-26 02:46 33.50226 -117.13110 24558 ft 463 kts 96°
2026-04-26 02:47 33.50218 -117.09235 24961 ft 467 kts 96°
2026-04-26 02:47 33.50202 -117.05328 25354 ft 470 kts 97°
2026-04-26 02:47 33.50172 -117.01399 25767 ft 473 kts 97°
2026-04-26 02:47 33.50128 -116.97445 26186 ft 475 kts 97°
2026-04-26 02:48 33.50075 -116.93477 26595 ft 478 kts 97°
2026-04-26 02:48 33.50015 -116.89485 26981 ft 481 kts 97°
2026-04-26 02:48 33.49952 -116.85469 27359 ft 484 kts 97°
2026-04-26 02:48 33.49887 -116.81427 27732 ft 487 kts 97°
2026-04-26 02:49 33.49821 -116.77362 28104 ft 489 kts 97°
2026-04-26 02:49 33.49758 -116.73483 28433 ft 492 kts 97°
2026-04-26 02:49 33.49690 -116.69379 28769 ft 495 kts 98°
2026-04-26 02:49 33.49621 -116.65243 29095 ft 498 kts 98°
2026-04-26 02:50 33.49550 -116.61084 29450 ft 500 kts 98°
2026-04-26 02:50 33.49481 -116.57105 29788 ft 502 kts 98°
2026-04-26 02:50 33.49407 -116.52920 30061 ft 504 kts 98°
2026-04-26 02:50 33.49331 -116.48713 30345 ft 506 kts 98°
2026-04-26 02:51 33.49253 -116.44488 30638 ft 508 kts 98°
2026-04-26 02:51 33.49177 -116.40247 30916 ft 510 kts 98°
2026-04-26 02:51 33.49112 -116.36007 31280 ft 510 kts 98°
2026-04-26 02:51 33.49052 -116.31755 31591 ft 510 kts 98°
2026-04-26 02:52 33.49001 -116.28130 31774 ft 512 kts 98°
2026-04-26 02:52 33.48937 -116.23859 32022 ft 513 kts 98°
2026-04-26 02:52 33.48871 -116.19590 32364 ft 512 kts 98°
2026-04-26 02:52 33.48805 -116.15334 32729 ft 511 kts 98°
2026-04-26 02:53 33.48735 -116.11071 32994 ft 513 kts 98°
2026-04-26 02:53 33.48704 -116.06790 33206 ft 519 kts 94°
2026-04-26 02:53 33.49071 -116.02451 33455 ft 527 kts 85°
2026-04-26 02:53 33.49952 -115.98161 33733 ft 534 kts 75°
2026-04-26 02:54 33.51187 -115.93959 34025 ft 535 kts 73°
2026-04-26 02:54 33.52481 -115.89792 34310 ft 534 kts 72°
2026-04-26 02:54 33.53777 -115.85615 34580 ft 534 kts 72°
2026-04-26 02:54 33.55043 -115.81438 34810 ft 534 kts 73°
2026-04-26 02:55 33.57522 -115.72973 34813 ft 539 kts 73°
2026-04-26 02:55 33.59965 -115.64535 34784 ft 531 kts 73°
2026-04-26 02:56 33.61683 -115.56013 34794 ft 521 kts 90°
2026-04-26 02:56 33.61685 -115.47444 34789 ft 512 kts 99°
2026-04-26 02:57 33.61372 -115.38908 34777 ft 512 kts 99°
2026-04-26 02:57 33.61107 -115.30365 34773 ft 512 kts 99°
2026-04-26 02:58 33.60883 -115.21828 34776 ft 512 kts 98°
2026-04-26 02:58 33.60663 -115.13298 34774 ft 511 kts 99°
2026-04-26 02:59 33.60433 -115.04778 34774 ft 510 kts 99°
2026-04-26 02:59 33.60194 -114.96280 34781 ft 510 kts 99°
2026-04-26 03:00 33.59950 -114.87785 34781 ft 509 kts 99°
2026-04-26 03:00 33.59698 -114.79259 34256 ft 515 kts 99°
2026-04-26 03:01 33.59498 -114.74983 33696 ft 508 kts 106°
2026-04-26 03:01 33.58865 -114.70865 33076 ft 501 kts 112°
2026-04-26 03:01 33.58053 -114.66816 32451 ft 498 kts 114°
2026-04-26 03:01 33.57183 -114.62795 31830 ft 497 kts 114°
2026-04-26 03:02 33.56317 -114.58784 31218 ft 498 kts 113°
2026-04-26 03:02 33.55475 -114.54763 30597 ft 498 kts 112°
2026-04-26 03:02 33.54657 -114.50720 30029 ft 498 kts 111°
2026-04-26 03:02 33.53864 -114.46697 29523 ft 494 kts 111°
2026-04-26 03:03 33.53086 -114.42701 29000 ft 490 kts 111°
2026-04-26 03:03 33.52370 -114.39018 28553 ft 486 kts 111°
2026-04-26 03:03 33.51604 -114.35091 28078 ft 482 kts 111°
2026-04-26 03:03 33.50840 -114.31202 27591 ft 478 kts 111°
2026-04-26 03:04 33.50077 -114.27333 27119 ft 475 kts 111°
2026-04-26 03:04 33.49318 -114.23502 26640 ft 471 kts 111°
2026-04-26 03:04 33.48563 -114.19695 26189 ft 468 kts 111°
2026-04-26 03:04 33.47823 -114.15970 25726 ft 465 kts 111°
2026-04-26 03:05 33.47079 -114.12221 25270 ft 462 kts 111°
2026-04-26 03:05 33.46336 -114.08490 24818 ft 459 kts 111°
2026-04-26 03:05 33.45598 -114.04796 24525 ft 452 kts 111°
2026-04-26 03:05 33.44871 -114.01163 24254 ft 445 kts 111°
2026-04-26 03:06 33.44154 -113.97591 23997 ft 438 kts 111°
2026-04-26 03:06 33.43446 -113.94069 23755 ft 431 kts 111°
2026-04-26 03:06 33.42752 -113.90611 23486 ft 425 kts 111°
2026-04-26 03:06 33.42224 -113.87978 23261 ft 420 kts 111°
2026-04-26 03:07 33.41548 -113.84614 22967 ft 412 kts 110°
2026-04-26 03:07 33.40887 -113.81315 22671 ft 402 kts 111°
2026-04-26 03:07 33.40239 -113.78094 22427 ft 395 kts 111°
2026-04-26 03:07 33.39597 -113.74919 22171 ft 391 kts 111°
2026-04-26 03:08 33.38958 -113.71772 21923 ft 387 kts 111°
2026-04-26 03:08 33.38326 -113.68659 21667 ft 384 kts 111°
2026-04-26 03:08 33.37697 -113.65562 21423 ft 381 kts 111°
2026-04-26 03:08 33.37068 -113.62477 21175 ft 383 kts 111°
2026-04-26 03:09 33.36433 -113.59367 20941 ft 386 kts 110°
2026-04-26 03:09 33.35799 -113.56252 20672 ft 384 kts 110°
2026-04-26 03:09 33.35172 -113.53162 20412 ft 381 kts 110°
2026-04-26 03:09 33.34548 -113.50099 20152 ft 378 kts 110°
2026-04-26 03:10 33.33926 -113.47058 19900 ft 375 kts 110°
2026-04-26 03:10 33.33371 -113.44243 19667 ft 374 kts 109°
2026-04-26 03:10 33.32838 -113.41197 19414 ft 373 kts 108°
2026-04-26 03:10 33.32331 -113.38163 19162 ft 372 kts 107°
2026-04-26 03:11 33.31825 -113.35137 18903 ft 370 kts 107°
2026-04-26 03:11 33.31314 -113.32126 18651 ft 368 kts 108°
2026-04-26 03:11 33.30799 -113.29133 18408 ft 367 kts 108°
2026-04-26 03:11 33.30285 -113.26164 18278 ft 361 kts 108°
2026-04-26 03:12 33.29777 -113.23236 18082 ft 359 kts 108°
2026-04-26 03:12 33.29309 -113.20300 17844 ft 359 kts 105°
2026-04-26 03:12 33.28898 -113.17356 17597 ft 359 kts 105°
2026-04-26 03:12 33.28493 -113.14416 17357 ft 358 kts 105°
2026-04-26 03:13 33.28080 -113.11484 17129 ft 358 kts 105°
2026-04-26 03:13 33.27661 -113.08558 16889 ft 357 kts 105°
2026-04-26 03:13 33.27356 -113.05815 16664 ft 360 kts 97°
2026-04-26 03:13 33.27354 -113.02809 16444 ft 362 kts 91°
2026-04-26 03:14 33.27482 -112.99805 16208 ft 362 kts 90°
2026-04-26 03:14 33.27623 -112.96798 15976 ft 362 kts 91°
2026-04-26 03:14 33.27742 -112.93800 15743 ft 361 kts 91°
2026-04-26 03:14 33.27837 -112.90809 15510 ft 360 kts 92°
2026-04-26 03:15 33.27916 -112.87824 15277 ft 358 kts 92°
2026-04-26 03:15 33.27988 -112.84864 15048 ft 354 kts 92°
2026-04-26 03:15 33.28063 -112.81937 14814 ft 350 kts 91°
2026-04-26 03:15 33.28254 -112.79050 14588 ft 347 kts 87°
2026-04-26 03:16 33.28530 -112.76194 14369 ft 346 kts 86°
2026-04-26 03:16 33.28825 -112.73337 14156 ft 346 kts 86°
2026-04-26 03:16 33.29117 -112.70482 13932 ft 346 kts 86°
2026-04-26 03:16 33.29398 -112.67665 13709 ft 346 kts 86°
2026-04-26 03:17 33.29678 -112.64773 13458 ft 345 kts 86°
2026-04-26 03:17 33.29949 -112.61928 13215 ft 344 kts 87°
2026-04-26 03:17 33.30216 -112.59091 12976 ft 342 kts 87°
2026-04-26 03:17 33.30478 -112.56273 12745 ft 341 kts 87°
2026-04-26 03:18 33.30739 -112.53464 12511 ft 339 kts 87°
2026-04-26 03:18 33.30993 -112.50717 12295 ft 336 kts 87°
2026-04-26 03:18 33.31248 -112.47950 12080 ft 334 kts 87°
2026-04-26 03:18 33.31501 -112.45201 11869 ft 331 kts 87°
2026-04-26 03:19 33.31752 -112.42469 11651 ft 329 kts 87°
2026-04-26 03:19 33.31999 -112.39761 11436 ft 327 kts 87°
2026-04-26 03:19 33.32245 -112.37074 11228 ft 324 kts 87°
2026-04-26 03:19 33.32488 -112.34402 11019 ft 322 kts 87°
2026-04-26 03:20 33.32730 -112.31752 10797 ft 320 kts 87°
2026-04-26 03:20 33.32970 -112.29118 10602 ft 317 kts 87°
2026-04-26 03:20 33.33209 -112.26499 10375 ft 316 kts 87°
2026-04-26 03:20 33.33444 -112.23907 10169 ft 311 kts 87°
2026-04-26 03:21 33.33672 -112.21353 9961 ft 307 kts 87°
2026-04-26 03:21 33.33899 -112.18841 9758 ft 302 kts 87°
2026-04-26 03:21 33.34126 -112.16365 9545 ft 297 kts 86°
2026-04-26 03:21 33.34347 -112.13925 9340 ft 292 kts 87°
2026-04-26 03:22 33.34563 -112.11522 9018 ft 293 kts 87°
2026-04-26 03:22 33.34774 -112.09106 8768 ft 288 kts 89°
2026-04-26 03:22 33.34819 -112.06774 8663 ft 273 kts 95°
2026-04-26 03:22 33.34766 -112.04557 8558 ft 262 kts 96°
2026-04-26 03:23 33.34709 -112.02408 8440 ft 255 kts 96°
2026-04-26 03:23 33.34664 -112.00299 8227 ft 253 kts 95°
2026-04-26 03:23 33.34629 -111.98191 7961 ft 253 kts 95°
2026-04-26 03:23 33.34599 -111.96112 7691 ft 247 kts 95°
2026-04-26 03:24 33.34570 -111.94050 7233 ft 250 kts 95°
2026-04-26 03:24 33.34523 -111.91976 6878 ft 249 kts 96°
2026-04-26 03:24 33.34458 -111.89923 6610 ft 245 kts 96°
2026-04-26 03:24 33.34391 -111.87891 6286 ft 244 kts 96°
2026-04-26 03:25 33.34349 -111.86551 6056 ft 244 kts 95°
2026-04-26 03:25 33.34300 -111.84530 5711 ft 242 kts 93°
2026-04-26 03:25 33.34648 -111.82577 5386 ft 240 kts 61°
2026-04-26 03:25 33.35737 -111.81217 5185 ft 220 kts 27°
2026-04-26 03:26 33.37159 -111.80823 4840 ft 203 kts 348°
2026-04-26 03:26 33.38369 -111.81419 4609 ft 183 kts 322°
2026-04-26 03:26 33.39394 -111.82308 4191 ft 182 kts 320°
2026-04-26 03:26 33.40405 -111.83223 4060 ft 184 kts 320°
2026-04-26 03:27 33.41435 -111.84168 3786 ft 186 kts 320°
2026-04-26 03:27 33.42346 -111.85229 3503 ft 180 kts 293°
2026-04-26 03:27 33.42631 -111.86629 3333 ft 171 kts 277°
2026-04-26 03:27 33.42775 -111.88013 3106 ft 163 kts 276°
2026-04-26 03:28 33.42865 -111.89321 2872 ft 153 kts 272°
2026-04-26 03:28 33.42884 -111.90577 2683 ft 151 kts 270°
2026-04-26 03:28 33.42885 -111.91854 2496 ft 155 kts 270°
2026-04-26 03:28 33.42883 -111.93138 2258 ft 153 kts 270°
2026-04-26 03:29 33.42882 -111.94409 2129 ft 153 kts 271°
2026-04-26 03:29 33.42889 -111.95694 1910 ft 155 kts 270°
2026-04-26 03:29 33.42878 -111.96982 1675 ft 154 kts 271°
2026-04-26 03:29 33.42882 -111.98254 1481 ft 151 kts 270°
2026-04-26 03:30 33.42884 -111.99473 1288 ft 144 kts 271°
2026-04-26 03:30 33.42885 -112.00668 1131 ft 139 kts 271°
2026-04-26 03:30 33.42886 -112.01607 1122 ft 82 kts 270°
2026-04-26 03:30 33.42890 -112.01972 1126 ft 31 kts 272°
2026-04-26 03:31 33.42933 -112.02153 1122 ft 10 kts 311°
2026-04-26 03:31 33.42959 -112.02172 1117 ft 1 kts 359°
2026-04-26 03:31 33.42992 -112.02141 1122 ft 10 kts 69°
2026-04-26 03:31 33.42996 -112.02048 1127 ft 14 kts 91°
2026-04-26 03:32 33.42996 -112.01901 1126 ft 19 kts 90°
2026-04-26 03:32 33.42996 -112.01742 1124 ft 19 kts 90°
2026-04-26 03:32 33.43009 -112.01641 1128 ft 9 kts 63°
2026-04-26 03:32 33.43051 -112.01581 1122 ft 12 kts 33°
2026-04-26 03:33 33.43144 -112.01571 1122 ft 13 kts 360°
2026-04-26 03:33 33.43205 -112.01558 1121 ft 0 kts 34°
2026-04-26 03:33 33.43210 -112.01553 1121 ft 6 kts 39°
2026-04-26 03:34 33.43270 -112.01509 1132 ft 7 kts 15°
2026-04-26 03:34 33.43272 -112.01508 1132 ft 0 kts 18°
2026-04-26 03:34 33.43279 -112.01504 1130 ft 4 kts 26°
2026-04-26 03:34 33.43288 -112.01460 1133 ft 10 kts 89°
2026-04-26 03:35 33.43289 -112.01346 1132 ft 15 kts 90°
2026-04-26 03:35 33.43302 -112.01237 1129 ft 11 kts 41°
2026-04-26 03:35 33.43366 -112.01245 1131 ft 9 kts 346°
2026-04-26 03:35 33.43417 -112.01246 1129 ft 6 kts 26°
2026-04-26 03:36 33.43424 -112.01224 1132 ft 0 kts 92°